Regional Weather Roundup
Issued by NWS

Home | Current Version | Previous Version | Text Only | Print | Product List | Glossary Off
Versions: 1 2 3 4 5 6 7 8 9 10 11 12 13 14 15 16 17 18 19 20 21 22 23 24 25 26 27 28 29 30 31 32 33 34 35 36 37 38 39 40 41 42 43 44 45 46 47 48 49 50

000
ASUS44 KMEG 231700
RWRTN
TENNESSEE HOURLY STATE WEATHER ROUNDUP
NATIONAL WEATHER SERVICE MEMPHIS TN
1200 PM CDT WED AUG 23 2017

TNZ002-004-019-021-049-052-054-088>092-231800-
WEST TENNESSEE

CITY           SKY/WX    TMP DP  RH WIND       PRES   REMARKS
MEMPHIS INTL   MOSUNNY   83  68  60 NE8       30.03F
NWS MEMPHIS      N/A     83 N/A N/A MISG        N/A
JACKSON        MOSUNNY   83  65  54 N7        30.06F
DYERSBURG      MOSUNNY   81  62  52 N14       30.07F
$$

TNZ008-025-027-028-033-062-065-066-231800-
NORTH MIDDLE TENNESSEE

CITY           SKY/WX    TMP DP  RH WIND       PRES   REMARKS
NASHVILLE      PTSUNNY   81  61  50 N10       30.05S
CLARKSVILLE    SUNNY     79  57  46 N9G17     30.06F
SMYRNA         MOSUNNY   81  64  56 N9G16     30.04F
CROSSVILLE     MOSUNNY   76  62  62 NW12      30.06F
$$

TNZ061-075-076-078-094-096-097-231800-
SOUTH MIDDLE TENNESSEE

CITY           SKY/WX    TMP DP  RH WIND       PRES   REMARKS
$$

TNZ017-018-042-046-047-231800-
NORTHEAST TENNESSEE

CITY           SKY/WX    TMP DP  RH WIND       PRES   REMARKS
TRI CITIES     PTSUNNY   80  67  64 VRB5      30.00F
$$

TNZ012-013-036-069-073-074-231800-
CENTRAL EAST TENNESSEE

CITY           SKY/WX    TMP DP  RH WIND       PRES   REMARKS
KNOXVILLE      PTSUNNY   83  65  54 N8        29.98F
OAK RIDGE      MOSUNNY   85  59  41 VRB5      30.00
GATLINBURG     PTSUNNY   79  66  65 CALM      29.99F
$$

TNZ083-085-099-231800-
SOUTHEAST TENNESSEE

CITY           SKY/WX    TMP DP  RH WIND       PRES   REMARKS
CHATTANOOGA    MOSUNNY   85  65  51 N9        30.00S
$$

SKY/WX REPORTED AS FAIR MEANS FEW OR NO CLOUDS BELOW
12 THOUSAND FEET.





USA.gov is the U.S. government's official web portal to all federal, state and local government web resources and services.